Location: Amsterdam
(30.7274°N, 84.4357°W)
Time: 15:50:46
(UTC+00:00)

JUGNU - Visible Passes

Search period start: 08 September 2024 00:00
Search period end: 18 September 2024 00:00
Orbit: 834 x 862 km, 20.0° (Epoch: 08 September)

Date Brightness Start Highest point End Pass type
(mag) Time Alt. Az. Time Alt. Az. Time Alt. Az.
08 Sep ? 08:51:55 13° SE 08:51:55 13° SE 08:52:42 10° SE visible
08 Sep ? 10:34:41 10° SW 10:36:37 12° SSW 10:38:31 10° S visible
09 Sep ? 10:19:45 10° SSW 10:20:41 10° SSW 10:21:39 10° S visible
13 Sep ? 01:59:21 10° SSW 02:00:23 13° SSW 02:00:23 13° SSW visible
14 Sep ? 01:43:14 10° SSW 01:45:44 18° S 01:45:44 18° S visible
15 Sep ? 01:27:08 10° SW 01:31:01 21° S 01:31:01 21° S visible
16 Sep ? 01:11:04 10° SW 01:15:37 22° S 01:16:17 22° SSE visible
17 Sep ? 00:55:01 10° SW 00:59:40 24° S 01:01:29 20° SE visible
17 Sep ? 02:43:05 10° WSW 02:43:17 11° WSW 02:43:17 11° WSW visible
